Location: Ladysmith
(45.4630°N, 91.1040°W)
Time: 06:11:37
(UTC-05:00)

Amateur Radio Satellites - All Passes

Search period start: 24 May 2015 05:41
Search period end: 25 May 2015 05:41
Location: Ladysmith, 45.4630°N, 91.1040°W

Satellite Date Start Highest point End Downlink Frequencies (MHz)
Time Altitude Azimuth
SO-50 24 May 05:42:05 05:46:34 39° 316° (NW) 05:51:10 436.795
PRISM 24 May 05:43:53 05:45:54 14° 62° (ENE) 05:48:05 437.425
HORYU 2 24 May 05:49:25 05:53:21 31° 293° (WNW) 05:57:14 437.375
Cosmos 2491 24 May 06:00:08 06:07:44 32° 64° (ENE) 06:15:27 435.465 / 435.565
STRAND 1 24 May 06:05:11 06:09:14 25° 64° (ENE) 06:13:23 437.568
CUBESAT XI-V 24 May 06:05:35 06:09:57 47° 72° (ENE) 06:14:25 437.345
M-CUBED/EXP-1 PRIME 24 May 06:11:58 06:15:19 24° 63° (ENE) 06:18:32 437.505
AO-7 24 May 06:13:08 06:21:21 62° 295° (WNW) 06:29:32 29.400- 29.500
MOZHAYETS 4 24 May 06:15:43 06:18:17 14° 272° (W) 06:20:39
AUBIESAT-1 24 May 06:23:09 06:26:38 26° 64° (ENE) 06:29:58 437.475
CUTE-I 24 May 06:46:18 06:51:01 31° 95° (E) 06:55:47 437.470
YUBILEINY 24 May 06:57:21 07:03:56 26° 81° (E) 07:10:48 435.215
PHONESAT 2.4 24 May 06:58:54 07:02:06 35° 178° (S) 07:05:19 2401.200-2431.200
JAS-2 24 May 07:00:39 07:03:09 13° 304° (WNW) 07:05:25 435.910
Cubesat XI-IV 24 May 07:05:38 07:10:47 46° 98° (E) 07:15:57 437.490
VERMONT LUNAR 24 May 07:09:22 07:12:08 26° 192° (SSW) 07:14:53 437.305
ISS 24 May 07:16:21 07:19:35 56° 214° (SW) 07:22:47 145.825
PRISM 24 May 07:16:52 07:20:55 63° 258° (WSW) 07:24:59 437.425
AIST 1 24 May 07:17:13 07:19:44 15° 66° (ENE) 07:22:24
SO-50 24 May 07:26:32 07:28:30 12° 338° (NNW) 07:30:23 436.795
STRAND 1 24 May 07:43:17 07:48:12 47° 262° (W) 07:53:08 437.568
CUBESAT XI-V 24 May 07:44:16 07:47:43 20° 270° (W) 07:51:02 437.345
M-CUBED/EXP-1 PRIME 24 May 07:46:03 07:50:03 36° 257° (WSW) 07:53:46 437.505
Cosmos 2491 24 May 07:56:36 08:05:21 66° 267° (W) 08:13:59 435.465 / 435.565
AUBIESAT-1 24 May 07:57:32 08:01:21 31° 258° (WSW) 08:04:53 437.475
AO-7 24 May 08:07:37 08:12:41 17° 316° (NW) 08:17:26 29.400- 29.500
HO-68 24 May 08:19:55 08:23:47 16° 85° (E) 08:28:01 435.675
DOVE 4 24 May 08:25:35 08:27:25 12° 83° (E) 08:29:32 437.250
BRITE-PL 24 May 08:26:10 08:31:09 31° 92° (E) 08:36:04 437.365/2234.400
CUTE-I 24 May 08:26:13 08:31:11 39° 293° (WNW) 08:36:07 437.470
PHONESAT 2.4 24 May 08:36:52 08:39:50 26° 194° (SSW) 08:42:47 2401.200-2431.200
CANX-2 24 May 08:38:32 08:40:31 13° 88° (E) 08:42:42 2200.000
CUTE 1.7 + AOD 2 24 May 08:42:35 08:44:34 13° 88° (E) 08:46:45 437.475
GOMX 1 24 May 08:45:10 08:49:51 29° 92° (E) 08:54:26 467.674
Cubesat XI-IV 24 May 08:46:11 08:50:41 28° 296° (WNW) 08:55:07 437.490
VERMONT LUNAR 24 May 08:48:08 08:48:43 10° 207° (SSW) 08:49:15 437.305
YUBILEINY 24 May 08:51:12 08:59:59 75° 281° (W) 09:08:46 435.215
AIST 1 24 May 08:53:33 08:57:50 56° 265° (W) 09:02:08
SEEDS 24 May 09:09:17 09:12:27 21° 92° (E) 09:15:42 437.485
RS-15 24 May 09:20:37 09:30:35 46° 111° (ESE) 09:40:57 29.354- 29.394
COMPASS 1 24 May 09:27:22 09:30:53 26° 94° (E) 09:34:25 437.405
PCSat 24 May 09:33:36 09:37:58 24° 40° (NE) 09:42:25 145.827
ANTELSAT 24 May 09:36:29 09:39:46 20° 64° (ENE) 09:43:08 437.575/2403.000
CUBEBUG 2 24 May 09:39:11 09:41:31 14° 87° (E) 09:44:01 437.445
AAUSAT CUBESAT 2 24 May 09:42:04 09:45:48 32° 96° (E) 09:49:33 437.432
ZACube-1 24 May 09:54:53 09:56:45 13° 86° (E) 09:58:49 437.345
Cosmos 2491 24 May 09:56:46 10:00:37 13° 287° (WNW) 10:03:50 435.465 / 435.565
DOVE 4 24 May 10:00:49 10:06:05 90° 342° (NNW) 10:11:05 437.250
CINEMA 3 24 May 10:01:54 10:06:35 48° 97° (E) 10:11:03 145.822/145.860
BRITE-PL 24 May 10:04:23 10:09:47 43° 291° (WNW) 10:14:59 437.365/2234.400
HO-68 24 May 10:05:33 10:12:45 82° 106° (ESE) 10:19:55 435.675
NANOSAT C BR1 24 May 10:06:25 10:09:04 17° 63° (ENE) 10:11:52 145.865
Cosmos 2504 24 May 10:08:51 10:16:30 42° 89° (E) 10:23:48 435.465 / 435.565
TIGRISAT 24 May 10:09:35 10:13:54 37° 69° (ENE) 10:18:12 435.000
QB50P2 24 May 10:11:41 10:14:42 19° 64° (ENE) 10:17:49 145.880/145.840
CANX-2 24 May 10:12:45 10:16:55 60° 286° (WNW) 10:21:04 2200.000
Oscar 11 24 May 10:13:04 10:16:58 33° 96° (E) 10:20:53 145.826/435.025
CUTE 1.7 + AOD 2 24 May 10:16:47 10:20:58 60° 286° (WNW) 10:25:05 437.475
GOMX 1 24 May 10:22:58 10:28:07 42° 291° (WNW) 10:33:02 467.674
POPSAT HIP 1 24 May 10:24:15 10:27:42 25° 66° (ENE) 10:31:14 437.405
UNISAT 6 24 May 10:28:18 10:32:54 58° 73° (ENE) 10:37:30 437.425
DUCHIFAT 1 24 May 10:28:39 10:32:11 26° 67° (ENE) 10:35:48 145.980
DELFI C3 24 May 10:30:03 10:33:47 36° 97° (E) 10:37:31 145.870
UWE-3 24 May 10:31:49 10:36:00 39° 96° (E) 10:40:04 435.000/436.395/437.385
SEEDS 24 May 10:44:32 10:48:25 36° 289° (WNW) 10:52:13 437.485
FUNcube-1 24 May 10:50:09 10:54:23 46° 98° (E) 10:58:31 145.935
SO-50 24 May 10:51:13 10:54:04 15° 27° (NNE) 10:57:00 436.795
YUBILEINY 24 May 10:52:57 10:58:43 18° 306° (NW) 11:04:05 435.215
COMPASS 1 24 May 11:02:56 11:06:34 29° 291° (WNW) 11:10:07 437.405
BUGSAT 1 24 May 11:05:10 11:09:05 43° 71° (ENE) 11:13:06 437.445
QB50P1 24 May 11:07:43 11:11:58 68° 74° (ENE) 11:16:15 145.935-145.965
POLYITAN 1 24 May 11:07:57 11:12:14 70° 74° (ENE) 11:16:33 437.675
ANTELSAT 24 May 11:11:35 11:16:12 54° 260° (W) 11:20:47 437.575/2403.000
CUBEBUG 2 24 May 11:14:15 11:18:46 62° 287° (WNW) 11:23:06 437.445
PCSat 24 May 11:16:31 11:21:56 70° 242° (WSW) 11:27:19 145.827
AAUSAT CUBESAT 2 24 May 11:17:56 11:21:19 24° 293° (WNW) 11:24:35 437.432
ZACube-1 24 May 11:29:19 11:33:42 66° 286° (WNW) 11:37:57 437.345
RS-15 24 May 11:31:54 11:42:43 61° 316° (NW) 11:53:54 29.354- 29.394
ESTCUBE 1 24 May 11:35:21 11:38:52 22° 92° (E) 11:42:27 437.505/2401.250
UKube-1 24 May 11:37:26 11:41:48 67° 102° (ESE) 11:46:07 .
CINEMA 3 24 May 11:39:43 11:43:28 22° 296° (WNW) 11:46:59 145.822/145.860
DOVE 4 24 May 11:40:15 11:43:05 14° 302° (WNW) 11:45:40 437.250
NANOSAT C BR1 24 May 11:40:20 11:44:31 55° 260° (W) 11:48:45 145.865
DX 1 24 May 11:41:37 11:46:03 80° 103° (ESE) 11:50:27 434.975-435.025
VELOX 1 24 May 11:44:00 11:48:17 43° 98° (E) 11:52:34 145.980
QB50P2 24 May 11:46:09 11:50:18 46° 261° (W) 11:54:28 145.880/145.840
TIGRISAT 24 May 11:46:44 11:50:44 26° 267° (W) 11:54:38 435.000
HUMSAT D 24 May 11:48:16 11:52:29 86° 284° (WNW) 11:56:37 437.325/437.525
Oscar 11 24 May 11:49:27 11:53:02 25° 293° (WNW) 11:56:31 145.826/435.025
CUBEBUG 1 24 May 11:51:17 11:55:06 28° 95° (E) 11:58:57 437.445
50 SAT 24 May 11:51:37 11:55:29 59° 100° (E) 11:59:18 437.505
HO-68 24 May 11:54:20 11:59:48 24° 305° (NW) 12:05:03 435.675
POPSAT HIP 1 24 May 11:59:29 12:03:26 34° 264° (W) 12:07:23 437.405
Cosmos 2504 24 May 12:01:58 12:09:56 45° 288° (WNW) 12:17:20 435.465 / 435.565
DUCHIFAT 1 24 May 12:04:04 12:07:55 32° 264° (W) 12:11:45 145.980
DELFI C3 24 May 12:05:39 12:08:42 21° 294° (WNW) 12:11:40 145.870
UNISAT 6 24 May 12:06:57 12:10:05 17° 271° (W) 12:13:03 437.425
UWE-3 24 May 12:08:46 12:12:20 23° 295° (WNW) 12:15:42 435.000/436.395/437.385
CUSAT 1 24 May 12:10:46 12:15:05 17° 78° (ENE) 12:20:07 437.405
AISAT 24 May 12:14:24 12:18:56 89° 284° (WNW) 12:23:27 437.250
FUNcube-1 24 May 12:27:14 12:30:24 19° 296° (WNW) 12:33:23 145.935
SO-50 24 May 12:30:48 12:35:42 57° 49° (NE) 12:40:34 436.795
SPROUT 24 May 12:41:48 12:45:30 27° 94° (E) 12:49:14 437.525
BUGSAT 1 24 May 12:41:51 12:44:48 18° 269° (W) 12:47:41 437.445
QB50P1 24 May 12:46:29 12:48:23 12° 273° (W) 12:50:04 145.935-145.965
POLYITAN 1 24 May 12:46:51 12:48:43 12° 273° (W) 12:50:21 437.675
Oscar 19 24 May 12:52:23 12:57:03 36° 67° (ENE) 13:01:48 437.125/150
DANDE 24 May 12:59:38 13:05:30 30° 84° (E) 13:12:26 436.750
ITAMSAT 1 24 May 13:02:05 13:04:54 15° 58° (ENE) 13:07:54 435.822/435.867
ESTCUBE 1 24 May 13:11:39 13:15:55 41° 290° (WNW) 13:20:09 437.505/2401.250
UKube-1 24 May 13:15:00 13:17:27 15° 299° (WNW) 13:19:45 .
TISAT 1 24 May 13:16:31 13:20:39 45° 99° (E) 13:24:45 437.305
DX 1 24 May 13:19:42 13:21:44 13° 300° (WNW) 13:23:35 434.975-435.025
GONETS M04 24 May 13:19:50 13:28:00 46° 88° (E) 13:36:18
VELOX 1 24 May 13:21:07 13:24:36 22° 295° (WNW) 13:27:59 145.980
Gurwin Techsat 1B 24 May 13:21:28 13:25:15 21° 61° (ENE) 13:29:12 435.225
CUBEBUG 1 24 May 13:27:30 13:31:29 32° 292° (WNW) 13:35:23 437.445
50 SAT 24 May 13:27:50 13:29:46 13° 297° (WNW) 13:31:33 437.505
AO-7 24 May 13:34:31 13:38:42 15° 42° (NE) 13:43:13 29.400- 29.500
RS-15 24 May 13:48:31 13:58:00 31° 347° (NNW) 14:07:47 29.354- 29.394
CUSAT 1 24 May 13:49:18 13:56:28 78° 98° (E) 14:04:48 437.405
AISAT 24 May 13:53:13 13:54:53 12° 301° (WNW) 13:56:20 437.250
SO-50 24 May 14:12:03 14:15:56 23° 247° (WSW) 14:19:41 436.795
SPROUT 24 May 14:17:44 14:21:36 31° 291° (WNW) 14:25:24 437.525
ITUPSAT 1 24 May 14:20:42 14:25:04 35° 96° (E) 14:29:28 437.325
BEESAT 24 May 14:30:11 14:34:45 44° 98° (E) 14:39:19 436.000
Oscar 19 24 May 14:31:46 14:36:27 33° 265° (W) 14:41:06 437.125/150
SWISSCUBE 24 May 14:38:07 14:42:50 57° 101° (E) 14:47:33 437.505
ITAMSAT 1 24 May 14:38:36 14:43:46 85° 253° (WSW) 14:49:01 435.822/435.867
DANDE 24 May 14:41:06 14:48:06 65° 286° (WNW) 14:56:29 436.750
Cosmos 2499 24 May 14:47:19 14:53:58 30° 86° (E) 15:00:25 435.465 / 435.565
TISAT 1 24 May 14:53:01 14:56:08 19° 296° (WNW) 14:59:08 437.305
Gurwin Techsat 1B 24 May 14:59:34 15:04:50 62° 259° (W) 15:10:07 435.225
HORYU 2 24 May 15:13:07 15:17:11 35° 68° (ENE) 15:21:17 437.375
GONETS M04 24 May 15:16:32 15:24:56 45° 290° (WNW) 15:33:19
KKS-1 24 May 15:20:45 15:24:34 27° 94° (E) 15:28:25 437.445
AO-7 24 May 15:21:52 15:29:51 55° 63° (ENE) 15:37:55 29.400- 29.500
JAS-2 24 May 15:26:50 15:33:19 52° 71° (ENE) 15:39:07 435.910
CUSAT 1 24 May 15:33:52 15:40:12 27° 301° (WNW) 15:46:56 437.405
O/OREOS (USA 219) 24 May 15:44:24 15:47:26 18° 102° (ESE) 15:50:34 437.305
ITUPSAT 1 24 May 15:58:45 16:02:54 29° 294° (WNW) 16:06:58 437.325
RS-15 24 May 16:04:43 16:14:42 34° 21° (NNE) 16:25:11 29.354- 29.394
BEESAT 24 May 16:08:32 16:12:22 24° 296° (WNW) 16:16:06 436.000
SWISSCUBE 24 May 16:16:55 16:20:19 19° 298° (WNW) 16:23:36 437.505
ITAMSAT 1 24 May 16:22:29 16:24:13 11° 275° (W) 16:25:35 435.822/435.867
DANDE 24 May 16:28:33 16:33:25 17° 311° (NW) 16:38:17 436.750
MOZHAYETS 4 24 May 16:30:37 16:32:40 13° 87° (E) 16:34:57
STARS 24 May 16:31:32 16:36:01 90° 287° (WNW) 16:40:26 437.465
CUTE-I 24 May 16:35:35 16:36:19 10° 54° (NE) 16:37:20 437.470
Cosmos 2499 24 May 16:38:41 16:46:46 60° 284° (WNW) 16:54:15 435.465 / 435.565
HORYU 2 24 May 16:50:08 16:53:55 25° 266° (W) 16:57:37 437.375
Cubesat XI-IV 24 May 16:52:57 16:55:48 15° 58° (ENE) 16:58:51 437.490
KKS-1 24 May 16:57:11 17:01:14 33° 292° (WNW) 17:05:13 437.445
YUBILEINY 24 May 17:04:02 17:08:08 14° 50° (NE) 17:12:45 435.215
JAS-2 24 May 17:12:50 17:18:39 29° 266° (W) 17:23:49 435.910
AO-7 24 May 17:15:23 17:23:00 38° 264° (W) 17:30:32 29.400- 29.500
O/OREOS (USA 219) 24 May 17:22:06 17:26:31 50° 299° (WNW) 17:30:55 437.305
MOZHAYETS 4 24 May 18:05:56 18:10:29 70° 286° (WNW) 18:15:01
CUTE-I 24 May 18:10:15 18:15:28 62° 72° (ENE) 18:20:45 437.470
STARS 24 May 18:10:16 18:11:49 11° 301° (WNW) 18:13:11 437.465
RS-15 24 May 18:17:52 18:29:26 75° 50° (NE) 18:41:32 29.354- 29.394
BEESAT 2 24 May 18:19:37 18:21:50 15° 111° (ESE) 18:24:14 435.950
Cubesat XI-IV 24 May 18:29:54 18:35:14 89° 253° (WSW) 18:40:37 437.490
Cosmos 2499 24 May 18:38:33 18:41:49 12° 307° (NW) 18:44:31 435.465 / 435.565
HO-68 24 May 18:51:52 18:56:16 18° 51° (NE) 19:00:56 435.675
PRISM 24 May 18:58:08 19:00:30 15° 90° (E) 19:03:01 437.425
YUBILEINY 24 May 18:58:41 19:07:19 63° 76° (ENE) 19:15:55 435.215
Cosmos 2491 24 May 19:04:53 19:12:13 32° 84° (E) 19:19:48 435.465 / 435.565
BEESAT 3 24 May 19:10:18 19:14:18 57° 122° (ESE) 19:18:21 437.485
AIST 2 24 May 19:29:06 19:32:25 23° 114° (ESE) 19:35:51 435.215
DOVE 4 24 May 19:32:27 19:35:44 18° 61° (ENE) 19:39:14 437.250
CANX-2 24 May 19:34:01 19:36:15 14° 63° (ENE) 19:38:38 2200.000
CUBESAT XI-V 24 May 19:36:59 19:41:43 87° 108° (ESE) 19:46:26 437.345
CUTE 1.7 + AOD 2 24 May 19:38:00 19:40:13 14° 63° (ENE) 19:42:36 437.475
BRITE-PL 24 May 19:38:47 19:43:29 40° 68° (ENE) 19:48:34 437.365/2234.400
STRAND 1 24 May 19:51:17 19:56:17 49° 99° (E) 20:01:17 437.568
CUTE-I 24 May 19:52:16 19:56:04 19° 271° (W) 19:59:42 437.470
GOMX 1 24 May 19:54:53 19:59:34 38° 68° (ENE) 20:04:33 467.674
BEESAT 2 24 May 19:55:23 19:59:29 64° 309° (NW) 20:03:38 435.950
Cosmos 2504 24 May 19:59:49 20:03:36 15° 55° (NE) 20:07:41 435.465 / 435.565
SEEDS 24 May 20:03:44 20:06:53 21° 66° (ENE) 20:10:06 437.485
Cubesat XI-IV 24 May 20:13:55 20:16:14 12° 275° (W) 20:18:14 437.490
COMPASS 1 24 May 20:20:53 20:24:18 25° 68° (ENE) 20:27:47 437.405
RS-15 24 May 20:30:56 20:41:14 37° 252° (WSW) 20:51:35 29.354- 29.394
PRISM 24 May 20:32:16 20:36:18 52° 288° (WNW) 20:40:19 437.425
AAUSAT CUBESAT 2 24 May 20:35:02 20:38:40 30° 69° (ENE) 20:42:21 437.432
HO-68 24 May 20:35:49 20:43:00 76° 71° (ENE) 20:50:12 435.675
CUBEBUG 2 24 May 20:39:10 20:42:22 19° 63° (ENE) 20:45:43 437.445
BEESAT 3 24 May 20:49:25 20:52:37 21° 321° (NW) 20:55:47 437.485
ZACube-1 24 May 20:52:46 20:55:30 16° 63° (ENE) 20:58:22 437.345
YUBILEINY 24 May 20:56:16 21:03:40 31° 276° (W) 21:10:49 435.215
M-CUBED/EXP-1 PRIME 24 May 20:59:46 21:03:06 61° 291° (WNW) 21:06:20 437.505
Cosmos 2491 24 May 20:59:55 21:08:38 62° 284° (WNW) 21:17:24 435.465 / 435.565
CINEMA 3 24 May 21:04:59 21:09:51 57° 73° (ENE) 21:14:50 145.822/145.860
DX 1 24 May 21:06:34 21:07:52 11° 59° (ENE) 21:09:23 434.975-435.025
AIST 2 24 May 21:06:40 21:10:47 44° 312° (NW) 21:14:55 435.215
CANX-2 24 May 21:07:29 21:11:44 64° 259° (W) 21:15:59 2200.000
DOVE 4 24 May 21:07:48 21:12:53 75° 259° (W) 21:18:13 437.250
Oscar 11 24 May 21:09:53 21:13:49 35° 70° (ENE) 21:17:47 145.826/435.025
HUMSAT D 24 May 21:10:02 21:10:54 11° 60° (ENE) 21:11:58 437.325/437.525
AUBIESAT-1 24 May 21:10:28 21:13:44 51° 293° (WNW) 21:16:57 437.475
CUTE 1.7 + AOD 2 24 May 21:11:27 21:15:42 64° 259° (W) 21:19:56 437.475
CUBESAT XI-V 24 May 21:16:23 21:18:32 13° 300° (WNW) 21:20:30 437.345
BRITE-PL 24 May 21:17:42 21:22:08 30° 268° (W) 21:26:48 437.365/2234.400
DELFI C3 24 May 21:19:37 21:23:09 31° 69° (ENE) 21:26:45 145.870
AIST 1 24 May 21:24:57 21:29:11 76° 98° (E) 21:33:29
UWE-3 24 May 21:30:33 21:34:58 44° 71° (ENE) 21:39:26 435.000/436.395/437.385
STRAND 1 24 May 21:31:05 21:35:14 24° 297° (WNW) 21:39:16 437.568
GOMX 1 24 May 21:33:11 21:37:45 32° 267° (W) 21:42:30 467.674
BEESAT 2 24 May 21:36:24 21:38:25 13° 329° (NNW) 21:40:21 435.950
SEEDS 24 May 21:38:28 21:42:28 39° 263° (W) 21:46:27 437.485
AISAT 24 May 21:40:26 21:42:32 14° 60° (ENE) 21:44:50 437.250
FUNcube-1 24 May 21:47:31 21:51:57 50° 72° (ENE) 21:56:23 145.935
Cosmos 2504 24 May 21:51:16 21:58:35 77° 80° (E) 22:05:46 435.465 / 435.565
COMPASS 1 24 May 21:56:07 21:59:54 31° 265° (W) 22:03:38 437.405
AAUSAT CUBESAT 2 24 May 22:10:46 22:14:18 26° 266° (W) 22:17:48 437.432
CUBEBUG 2 24 May 22:13:57 22:18:40 60° 260° (W) 22:23:24 437.445
HO-68 24 May 22:26:02 22:31:33 22° 271° (W) 22:36:49 435.675
ZACube-1 24 May 22:26:49 22:31:24 66° 260° (W) 22:35:59 437.345
UKube-1 24 May 22:34:10 22:38:30 76° 73° (ENE) 22:42:51 .
ESTCUBE 1 24 May 22:37:11 22:40:55 27° 67° (ENE) 22:44:44 437.505/2401.250
50 SAT 24 May 22:38:10 22:42:00 46° 72° (ENE) 22:45:51 437.505
DX 1 24 May 22:39:08 22:43:30 89° 272° (W) 22:47:54 434.975-435.025
HUMSAT D 24 May 22:41:41 22:46:01 87° 77° (ENE) 22:50:22 437.325/437.525
VELOX 1 24 May 22:43:35 22:47:52 51° 71° (ENE) 22:52:12 145.980
CINEMA 3 24 May 22:43:49 22:47:27 19° 271° (W) 22:50:59 145.822/145.860
CUSAT 1 24 May 22:45:26 22:49:53 17° 50° (NE) 22:54:11 437.405
Oscar 11 24 May 22:46:32 22:50:06 24° 267° (W) 22:53:36 145.826/435.025
AIST 2 24 May 22:49:21 22:50:29 11° 334° (NNW) 22:51:30 435.215
CUBEBUG 1 24 May 22:49:36 22:53:23 30° 68° (ENE) 22:57:17 437.445
DELFI C3 24 May 22:55:01 22:58:19 24° 266° (W) 23:01:35 145.870
ANTELSAT 24 May 23:01:58 23:05:40 26° 93° (E) 23:09:21 437.575/2403.000
Cosmos 2491 24 May 23:03:13 23:07:54 14° 310° (NW) 23:12:07 435.465 / 435.565
AIST 1 24 May 23:06:04 23:07:31 11° 297° (WNW) 23:08:46
UWE-3 24 May 23:07:59 23:11:42 22° 268° (W) 23:15:20 435.000/436.395/437.385
AISAT 24 May 23:14:07 23:18:35 77° 258° (WSW) 23:23:05 437.250
NANOSAT C BR1 24 May 23:23:43 23:26:54 20° 92° (E) 23:30:09 145.865
FUNcube-1 24 May 23:25:15 23:28:34 19° 270° (W) 23:31:46 145.935
GONETS M04 24 May 23:27:18 23:34:13 26° 60° (ENE) 23:41:20
QB50P2 24 May 23:29:39 23:33:08 24° 93° (E) 23:36:40 145.880/145.840
TIGRISAT 24 May 23:35:34 23:39:57 57° 100° (E) 23:44:12 435.000
SPROUT 24 May 23:38:08 23:41:49 28° 68° (ENE) 23:45:34 437.525
DANDE 24 May 23:38:33 23:45:36 31° 61° (ENE) 23:51:48 436.750
POPSAT HIP 1 24 May 23:42:19 23:46:10 32° 96° (E) 23:50:01 437.405
Cosmos 2504 24 May 23:46:09 23:51:10 20° 279° (W) 23:55:51 435.465 / 435.565
DUCHIFAT 1 24 May 23:46:16 23:50:11 34° 96° (E) 23:54:05 145.980
UNISAT 6 24 May 23:54:52 23:59:21 88° 288° (WNW) 00:03:41 437.425
ISS 24 May 23:58:28 23:59:58 13° 134° (SE) 00:01:34 145.825
TISAT 1 25 May 00:10:38 00:14:40 45° 71° (ENE) 00:18:47 437.305
SWISSCUBE 25 May 00:12:44 00:14:20 12° 58° (ENE) 00:16:09 437.505
ESTCUBE 1 25 May 00:13:38 00:17:43 33° 264° (W) 00:21:47 437.505/2401.250
UKube-1 25 May 00:13:50 00:15:15 11° 273° (W) 00:16:26 .
50 SAT 25 May 00:14:26 00:17:00 16° 270° (W) 00:19:26 437.505
BUGSAT 1 25 May 00:20:16 00:24:30 55° 100° (E) 00:28:41 437.445
VELOX 1 25 May 00:21:44 00:24:46 17° 270° (W) 00:27:41 145.980
CUBEBUG 1 25 May 00:25:58 00:29:45 28° 265° (W) 00:33:32 437.445
QB50P1 25 May 00:26:22 00:30:42 86° 284° (WNW) 00:34:59 145.935-145.965
CUSAT 1 25 May 00:26:43 00:34:28 71° 76° (ENE) 00:40:35 437.405
POLYITAN 1 25 May 00:27:00 00:31:20 84° 285° (WNW) 00:35:36 437.675
ANTELSAT 25 May 00:38:32 00:42:31 32° 292° (WNW) 00:46:21 437.575/2403.000
NANOSAT C BR1 25 May 00:58:54 01:02:56 40° 290° (WNW) 01:06:55 145.865
QB50P2 25 May 01:05:13 01:09:07 34° 291° (WNW) 01:12:57 145.880/145.840
TIGRISAT 25 May 01:13:25 01:16:17 17° 298° (WNW) 01:18:59 435.000
SPROUT 25 May 01:14:02 01:17:51 30° 265° (W) 01:21:41 437.525
POPSAT HIP 1 25 May 01:18:19 01:21:57 26° 293° (WNW) 01:25:30 437.405
DANDE 25 May 01:21:29 01:29:38 65° 265° (W) 01:36:13 436.750
DUCHIFAT 1 25 May 01:22:20 01:25:52 25° 294° (WNW) 01:29:18 145.980
GONETS M04 25 May 01:23:24 01:32:15 79° 264° (W) 01:40:57
ITUPSAT 1 25 May 01:29:33 01:34:09 52° 71° (ENE) 01:38:48 437.325
ISS 25 May 01:32:43 01:35:57 84° 154° (SSE) 01:39:14 145.825
UNISAT 6 25 May 01:34:11 01:35:27 11° 301° (WNW) 01:36:30 437.425
BEESAT 25 May 01:38:41 01:43:23 65° 73° (ENE) 01:48:08 436.000
SWISSCUBE 25 May 01:46:45 01:51:30 83° 72° (ENE) 01:56:18 437.505
TISAT 1 25 May 01:47:43 01:50:43 18° 269° (W) 01:53:37 437.305
BEESAT 3 25 May 01:50:18 01:52:19 13° 32° (NNE) 01:54:25 437.485
O/OREOS (USA 219) 25 May 01:50:34 01:54:57 51° 61° (ENE) 01:59:18 437.305
BUGSAT 1 25 May 01:56:50 01:59:35 17° 297° (WNW) 02:02:12 437.445
STARS 25 May 01:56:50 01:58:52 13° 60° (ENE) 02:01:03 437.465
PCSat 25 May 01:59:59 02:05:21 71° 119° (ESE) 02:10:47 145.827
QB50P1 25 May 02:05:03 02:05:55 10° 301° (WNW) 02:06:34 145.935-145.965
POLYITAN 1 25 May 02:06:02 02:06:34 10° 301° (WNW) 02:06:53 437.675
CUSAT 1 25 May 02:10:33 02:16:15 23° 279° (W) 02:20:56 437.405
KKS-1 25 May 02:20:56 02:24:55 33° 68° (ENE) 02:28:59 437.445
Cosmos 2499 25 May 02:27:02 02:33:57 54° 75° (ENE) 02:40:54 435.465 / 435.565
BEESAT 2 25 May 02:35:07 02:38:26 23° 40° (NE) 02:41:43 435.950
Oscar 19 25 May 02:40:20 02:45:31 76° 103° (ESE) 02:50:40 437.125/150
ITAMSAT 1 25 May 02:49:35 02:54:04 29° 94° (E) 02:58:35 435.822/435.867
VERMONT LUNAR 25 May 03:01:54 03:03:23 13° 155° (SSE) 03:04:56 437.305
DANDE 25 May 03:07:42 03:11:10 13° 286° (WNW) 03:13:57 436.750
ITUPSAT 1 25 May 03:08:57 03:12:24 19° 269° (W) 03:15:44 437.325
ISS 25 May 03:09:42 03:12:39 30° 349° (N) 03:15:36 145.825
Gurwin Techsat 1B 25 May 03:13:31 03:18:36 45° 98° (E) 03:23:41 435.225
BEESAT 25 May 03:18:52 03:21:46 15° 271° (W) 03:24:28 436.000
GONETS M04 25 May 03:22:28 03:27:46 17° 284° (WNW) 03:32:35
AO-7 25 May 03:23:31 03:26:49 13° 82° (E) 03:30:47 29.400- 29.500
BEESAT 3 25 May 03:26:59 03:31:05 70° 52° (NE) 03:35:07 437.485
SWISSCUBE 25 May 03:28:17 03:30:06 12° 274° (W) 03:31:38 437.505
STARS 25 May 03:30:18 03:34:44 79° 255° (WSW) 03:39:14 437.465
O/OREOS (USA 219) 25 May 03:30:57 03:34:01 18° 258° (WSW) 03:36:55 437.305
MOZHAYETS 4 25 May 03:34:38 03:37:34 18° 63° (ENE) 03:40:39
PCSat 25 May 03:44:55 03:49:20 24° 320° (NW) 03:53:41 145.827
AIST 2 25 May 03:48:00 03:51:52 33° 44° (NE) 03:55:41 435.215
KKS-1 25 May 03:57:45 04:01:37 27° 266° (W) 04:05:26 437.445
BEESAT 2 25 May 04:12:46 04:16:47 51° 240° (WSW) 04:20:42 435.950
JAS-2 25 May 04:18:49 04:23:22 31° 95° (E) 04:28:02 435.910
Cosmos 2499 25 May 04:20:50 04:26:45 29° 275° (W) 04:32:30 435.465 / 435.565
Oscar 19 25 May 04:21:01 04:24:20 17° 300° (WNW) 04:27:28 437.125/150
SO-50 25 May 04:27:09 04:31:51 75° 123° (ESE) 04:36:43 436.795
ITAMSAT 1 25 May 04:28:49 04:33:42 40° 292° (WNW) 04:38:32 435.822/435.867
VERMONT LUNAR 25 May 04:37:12 04:40:02 29° 171° (S) 04:42:53 437.305
HORYU 2 25 May 04:38:15 04:42:35 51° 100° (E) 04:46:54 437.375
PHONESAT 2.4 25 May 04:39:44 04:42:14 19° 159° (SSE) 04:44:45 2401.200-2431.200
ISS 25 May 04:46:43 04:49:39 29° 9° (N) 04:52:35 145.825
Gurwin Techsat 1B 25 May 04:53:55 04:58:24 28° 296° (WNW) 05:02:48 435.225
BEESAT 3 25 May 05:06:36 05:08:34 13° 249° (WSW) 05:10:21 437.485
CUBESAT XI-V 25 May 05:07:50 05:10:08 14° 61° (ENE) 05:12:37 437.345
MOZHAYETS 4 25 May 05:09:53 05:14:24 58° 260° (W) 05:18:57
Cosmos 2491 25 May 05:11:57 05:17:33 19° 54° (NE) 05:23:31 435.465 / 435.565
AO-7 25 May 05:13:09 05:21:30 67° 104° (ESE) 05:29:50 29.400- 29.500
AIST 2 25 May 05:26:38 05:30:25 32° 243° (WSW) 05:34:07 435.215
STRAND 1 25 May 05:33:31 05:35:54 14° 58° (ENE) 05:38:31 437.568
